Meteo orario a/p Chisinau International Airport

Oggi, 20 Giugno, Domenica

Tempo Temperatura Precipitazioni Vento Pressione Umidità
00:00 +19°C° 0 mm 3 m/s 756 mm Hg 90%
01:00 +19°C° 0 mm 3 m/s 756 mm Hg 91%
02:00 +18°C° 0 mm 3 m/s 756 mm Hg 93%
03:00 +18°C° 1.1 mm 3 m/s 755 mm Hg 94%
04:00 +19°C° 1.1 mm 3 m/s 755 mm Hg 96%
05:00 +19°C° 1.1 mm 3 m/s 754 mm Hg 97%
06:00 +19°C° 5 mm 3 m/s 754 mm Hg 97%
07:00 +19°C° 5 mm 3 m/s 755 mm Hg 96%
08:00 +20°C° 0 mm 4 m/s 755 mm Hg 96%
09:00 +21°C° 0.3 mm 4 m/s 755 mm Hg 91%
10:00 +22°C° 0.3 mm 4 m/s 754 mm Hg 85%
11:00 +25°C° 0.3 mm 5 m/s 754 mm Hg 79%
12:00 +25°C° 0.6 mm 4 m/s 754 mm Hg 79%
13:00 +25°C° 0.6 mm 4 m/s 754 mm Hg 79%
14:00 +25°C° 0.6 mm 3 m/s 754 mm Hg 79%
15:00 +25°C° 0.7 mm 3 m/s 754 mm Hg 79%
16:00 +25°C° 0.7 mm 3 m/s 754 mm Hg 80%
17:00 +25°C° 0.7 mm 3 m/s 754 mm Hg 80%
18:00 +24°C° 1 mm 2 m/s 754 mm Hg 84%
19:00 +23°C° 1 mm 2 m/s 754 mm Hg 88%
20:00 +21°C° 1 mm 2 m/s 754 mm Hg 92%
21:00 +22°C° 0.1 mm 1 m/s 754 mm Hg 92%
22:00 +21°C° 0.1 mm 1 m/s 754 mm Hg 93%
23:00 +21°C° 0.1 mm 1 m/s 754 mm Hg 94%

Domani, 21 Giugno, Lunedi

Tempo Temperatura Precipitazioni Vento Pressione Umidità
00:00 +20°C° 0.1 mm 1 m/s 754 mm Hg 94%
01:00 +20°C° 0.1 mm 1 m/s 754 mm Hg 95%
02:00 +18°C° 0.1 mm 0 m/s 754 mm Hg 95%
03:00 +18°C° 0 mm 0 m/s 754 mm Hg 96%
04:00 +18°C° 0 mm 0 m/s 754 mm Hg 96%
05:00 +18°C° 0 mm 0 m/s 754 mm Hg 97%
06:00 +21°C° 0 mm 1 m/s 754 mm Hg 93%
07:00 +23°C° 0 mm 1 m/s 755 mm Hg 89%
08:00 +24°C° 0 mm 2 m/s 755 mm Hg 85%
09:00 +25°C° 0 mm 2 m/s 755 mm Hg 78%
10:00 +26°C° 0 mm 2 m/s 755 mm Hg 71%
11:00 +28°C° 0 mm 3 m/s 755 mm Hg 64%
12:00 +28°C° 0 mm 2 m/s 755 mm Hg 60%
13:00 +29°C° 0 mm 2 m/s 754 mm Hg 56%
14:00 +30°C° 0 mm 2 m/s 754 mm Hg 52%
15:00 +30°C° 0 mm 2 m/s 754 mm Hg 53%
16:00 +30°C° 0 mm 2 m/s 754 mm Hg 54%
17:00 +30°C° 0 mm 2 m/s 754 mm Hg 55%
18:00 +28°C° 0 mm 2 m/s 754 mm Hg 60%
19:00 +27°C° 0 mm 2 m/s 754 mm Hg 65%
20:00 +25°C° 0 mm 2 m/s 755 mm Hg 70%
21:00 +25°C° 0 mm 1 m/s 755 mm Hg 72%
22:00 +24°C° 0 mm 1 m/s 755 mm Hg 75%
23:00 +23°C° 0 mm 1 m/s 755 mm Hg 77%

Dopodomani, 22 Giugno, Martedi

Tempo Temperatura Precipitazioni Vento Pressione Umidità
00:00 +23°C° 0 mm 1 m/s 755 mm Hg 78%
01:00 +22°C° 0 mm 1 m/s 754 mm Hg 80%
02:00 +22°C° 0 mm 1 m/s 754 mm Hg 81%
03:00 +22°C° 0.2 mm 1 m/s 754 mm Hg 82%
04:00 +22°C° 0.2 mm 1 m/s 754 mm Hg 82%
05:00 +22°C° 0.2 mm 1 m/s 754 mm Hg 83%
06:00 +23°C° 0.2 mm 1 m/s 754 mm Hg 80%
07:00 +24°C° 0.2 mm 2 m/s 755 mm Hg 77%
08:00 +26°C° 0.2 mm 2 m/s 755 mm Hg 74%
09:00 +26°C° 0.4 mm 2 m/s 755 mm Hg 71%
10:00 +27°C° 0.4 mm 2 m/s 755 mm Hg 68%
11:00 +28°C° 0.4 mm 2 m/s 755 mm Hg 66%
12:00 +29°C° 0.1 mm 2 m/s 755 mm Hg 61%
13:00 +31°C° 0.1 mm 2 m/s 754 mm Hg 57%
14:00 +32°C° 0.1 mm 2 m/s 754 mm Hg 53%
15:00 +32°C° 0.4 mm 2 m/s 754 mm Hg 54%
16:00 +32°C° 0.4 mm 2 m/s 754 mm Hg 54%
17:00 +32°C° 0.4 mm 2 m/s 754 mm Hg 55%
18:00 +30°C° 0.3 mm 2 m/s 754 mm Hg 62%
19:00 +28°C° 0.3 mm 2 m/s 754 mm Hg 68%
20:00 +26°C° 0.3 mm 2 m/s 755 mm Hg 75%
21:00 +26°C° 0.5 mm 2 m/s 755 mm Hg 78%
22:00 +25°C° 0.5 mm 2 m/s 755 mm Hg 80%
23:00 +25°C° 0.5 mm 2 m/s 755 mm Hg 83%

23 Giugno, Mercoledi

Tempo Temperatura Precipitazioni Vento Pressione Umidità
00:00 +24°C° 0 mm 2 m/s 755 mm Hg 84%
01:00 +24°C° 0 mm 2 m/s 755 mm Hg 85%
02:00 +23°C° 0 mm 2 m/s 755 mm Hg 87%
03:00 +23°C° 0.1 mm 2 m/s 755 mm Hg 88%
04:00 +23°C° 0.1 mm 1 m/s 755 mm Hg 89%
05:00 +23°C° 0.1 mm 1 m/s 755 mm Hg 90%
06:00 +24°C° 0 mm 2 m/s 755 mm Hg 85%
07:00 +26°C° 0 mm 2 m/s 755 mm Hg 80%
08:00 +27°C° 0 mm 2 m/s 756 mm Hg 75%
09:00 +28°C° 0 mm 2 m/s 756 mm Hg 70%
10:00 +29°C° 0 mm 2 m/s 756 mm Hg 65%
11:00 +31°C° 0 mm 2 m/s 756 mm Hg 60%
12:00 +31°C° 0 mm 2 m/s 756 mm Hg 58%
13:00 +32°C° 0 mm 2 m/s 756 mm Hg 55%
14:00 +34°C° 0 mm 2 m/s 756 mm Hg 53%
15:00 +32°C° 0.1 mm 2 m/s 756 mm Hg 53%
16:00 +32°C° 0.1 mm 2 m/s 756 mm Hg 54%
17:00 +32°C° 0.1 mm 2 m/s 756 mm Hg 55%
18:00 +30°C° 0.1 mm 2 m/s 756 mm Hg 61%
19:00 +28°C° 0.1 mm 2 m/s 756 mm Hg 67%
20:00 +27°C° 0.1 mm 2 m/s 756 mm Hg 72%
21:00 +25°C° 0.5 mm 1 m/s 757 mm Hg 76%
22:00 +24°C° 0.5 mm 1 m/s 757 mm Hg 80%
23:00 +23°C° 0.5 mm 1 m/s 757 mm Hg 83%

24 Giugno, Giovedi

Tempo Temperatura Precipitazioni Vento Pressione Umidità
00:00 +23°C° 0.5 mm 1 m/s 757 mm Hg 84%
01:00 +23°C° 0.5 mm 1 m/s 757 mm Hg 84%
02:00 +23°C° 0.5 mm 1 m/s 757 mm Hg 84%
03:00 +23°C° 0 mm 1 m/s 757 mm Hg 85%
04:00 +23°C° 0 mm 1 m/s 757 mm Hg 85%
05:00 +24°C° 0 mm 1 m/s 757 mm Hg 85%
06:00 +25°C° 0 mm 1 m/s 757 mm Hg 81%
07:00 +27°C° 0 mm 1 m/s 757 mm Hg 76%
08:00 +28°C° 0 mm 1 m/s 757 mm Hg 71%
09:00 +30°C° 0 mm 1 m/s 757 mm Hg 66%
10:00 +31°C° 0 mm 1 m/s 757 mm Hg 61%
11:00 +30°C° 0 mm 0 m/s 757 mm Hg 56%
12:00 +33°C° 0 mm 1 m/s 757 mm Hg 53%
13:00 +33°C° 0 mm 1 m/s 757 mm Hg 50%
14:00 +34°C° 0 mm 1 m/s 757 mm Hg 46%
15:00 +34°C° 0 mm 1 m/s 756 mm Hg 47%
16:00 +34°C° 0 mm 1 m/s 756 mm Hg 47%
17:00 +33°C° 0 mm 1 m/s 756 mm Hg 48%
18:00 +32°C° 0 mm 1 m/s 756 mm Hg 52%
19:00 +30°C° 0 mm 1 m/s 756 mm Hg 57%
20:00 +29°C° 0 mm 1 m/s 756 mm Hg 62%
21:00 +28°C° 0 mm 1 m/s 756 mm Hg 65%
22:00 +27°C° 0 mm 1 m/s 756 mm Hg 68%
23:00 +24°C° 0 mm 0 m/s 756 mm Hg 70%

25 Giugno, Venerdi

Tempo Temperatura Precipitazioni Vento Pressione Umidità
00:00 +23°C° 0 mm 0 m/s 756 mm Hg 71%
01:00 +23°C° 0 mm 0 m/s 756 mm Hg 72%
02:00 +23°C° 0 mm 0 m/s 756 mm Hg 73%
03:00 +23°C° 0 mm 0 m/s 756 mm Hg 74%
04:00 +23°C° 0 mm 0 m/s 756 mm Hg 75%
05:00 +23°C° 0 mm 0 m/s 755 mm Hg 76%
06:00 +24°C° 0 mm 0 m/s 756 mm Hg 72%
07:00 +28°C° 0 mm 1 m/s 756 mm Hg 67%
08:00 +29°C° 0 mm 1 m/s 756 mm Hg 63%
09:00 +31°C° 0 mm 1 m/s 756 mm Hg 60%
10:00 +32°C° 0 mm 1 m/s 755 mm Hg 57%
11:00 +33°C° 0 mm 1 m/s 755 mm Hg 53%
12:00 +33°C° 0 mm 1 m/s 755 mm Hg 50%
13:00 +34°C° 0 mm 1 m/s 755 mm Hg 48%
14:00 +34°C° 0 mm 1 m/s 755 mm Hg 45%
15:00 +34°C° 0 mm 1 m/s 755 mm Hg 45%
16:00 +35°C° 0 mm 1 m/s 754 mm Hg 45%
17:00 +33°C° 0 mm 0 m/s 754 mm Hg 45%
18:00 +32°C° 0.1 mm 1 m/s 754 mm Hg 53%
19:00 +30°C° 0.1 mm 1 m/s 755 mm Hg 60%
20:00 +28°C° 0.1 mm 1 m/s 755 mm Hg 68%
21:00 +27°C° 0.1 mm 1 m/s 755 mm Hg 70%
22:00 +27°C° 0.1 mm 1 m/s 755 mm Hg 73%
23:00 +26°C° 0.1 mm 1 m/s 755 mm Hg 75%
Mostrare altro

Abbiamo bisogno del tuo consenso

Meteoprog e i nostri fornitori di servizi possono memorizzare e accedere a dati personali come cookie, identificatori di dispositivi o altre tecnologie simili sul tuo dispositivo e possono elaborare tali dati per personalizzare i contenuti e gli annunci, nonché fornire funzionalità dei social media e analizzarne il traffico.

  • Archiviare e/o accedere alle informazioni sul tuo dispositivo

    Cookie, identificatori di dispositivi o altre informazioni possono essere memorizzati o resi accessibili sul tuo dispositivo per le finalità sopra indicate.

  • Annunci e contenuti personalizzati, misurazione di annunci e contenuti, approfondimenti sul pubblico e sviluppo di prodotti

    Gli annunci e i contenuti possono essere personalizzati in base a un profilo. È possibile aggiungere più dati per personalizzare meglio annunci e contenuti. È possibile misurare il rendimento degli annunci e dei contenuti. È possibile ricavare informazioni sul pubblico che ha visto gli annunci e i contenuti. Tali dati possono essere utilizzati per sviluppare o migliorare l'esperienza, i sistemi e il software dell'utente.

Cliccando su “Accetto”, acconsenti all'uso di cookie, identificatori di dispositivo, web beacon o altre tecnologie simili. Puoi modificare le impostazioni nel browser del tuo dispositivo.

Per determinati scopi, è possibile fare affidamento su interessi legali, piuttosto che sul consenso. Puoi approfondire questo argomento consultando la nostra Informativa sulla privacy e sui cookie.